Time,TemperatureF,DewpointF,PressureIn,WindDirection,WindDirectionDegrees,WindSpeedMPH,WindSpeedGustMPH,Humidity,HourlyPrecipIn,Conditions,Clouds,dailyrainin,SolarRadiationWatts/m^2,SoftwareType,DateUTC
2013-01-19 00:00:00,28.2,27.2,30.55,WSW,243,2.0,2.0,96,0.00,,,0.00,0,WeatherCatV1.10B1570,2013-01-19 05:00:00,
2013-01-19 00:01:00,28.2,27.2,30.55,WSW,243,1.0,2.0,96,0.00,,,0.00,0,WeatherCatV1.10B1570,2013-01-19 05:01:00,
2013-01-19 00:06:00,27.9,26.7,30.54,WSW,243,0.0,0.0,95,0.00,,,0.00,0,WeatherCatV1.10B1570,2013-01-19 05:06:00,
2013-01-19 00:11:00,27.8,26.8,30.54,WSW,243,0.0,0.0,96,0.00,,,0.00,0,WeatherCatV1.10B1570,2013-01-19 05:11:00,
2013-01-19 00:16:00,27.9,26.9,30.54,WSW,243,0.0,0.0,96,0.00,,,0.00,0,WeatherCatV1.10B1570,2013-01-19 05:16:00,
2013-01-19 00:21:00,27.8,26.8,30.54,WSW,243,0.0,0.0,96,0.00,,,0.00,0,WeatherCatV1.10B1570,2013-01-19 05:21:00,
2013-01-19 00:26:00,27.9,26.9,30.54,WSW,243,0.0,0.0,96,0.00,,,0.00,0,WeatherCatV1.10B1570,2013-01-19 05:26:00,
2013-01-19 00:30:00,27.9,26.9,30.54,WSW,243,0.0,0.0,96,0.00,,,0.00,0,WeatherCatV1.10B1570,2013-01-19 05:30:00,
2013-01-19 00:35:00,28.0,27.0,30.54,WSW,243,0.0,0.0,96,0.00,,,0.00,0,WeatherCatV1.10B1570,2013-01-19 05:35:00,
2013-01-19 00:40:00,28.1,27.1,30.54,WSW,243,0.0,0.0,96,0.00,,,0.00,0,WeatherCatV1.10B1570,2013-01-19 05:40:00,
2013-01-19 00:45:00,28.7,27.5,30.54,WSW,243,0.0,0.0,95,0.00,,,0.00,0,WeatherCatV1.10B1570,2013-01-19 05:45:00,
2013-01-19 00:50:00,28.4,27.2,30.54,WSW,243,0.0,0.0,95,0.00,,,0.00,0,WeatherCatV1.10B1570,2013-01-19 05:50:00,
2013-01-19 00:55:00,28.2,26.7,30.54,WSW,243,0.0,0.0,94,0.00,,,0.00,0,WeatherCatV1.10B1570,2013-01-19 05:55:00,
2013-01-19 01:00:00,28.5,27.3,30.54,WSW,243,0.0,0.0,95,0.00,,,0.00,0,WeatherCatV1.10B1570,2013-01-19 06:00:00,
2013-01-19 01:05:00,28.7,27.5,30.53,WSW,243,0.0,0.0,95,0.00,,,0.00,0,WeatherCatV1.10B1570,2013-01-19 06:05:00,
2013-01-19 01:10:00,28.2,26.7,30.53,WSW,243,0.0,0.0,94,0.00,,,0.00,0,WeatherCatV1.10B1570,2013-01-19 06:10:00,
2013-01-19 01:15:00,28.1,26.9,30.53,WSW,243,0.0,0.0,95,0.00,,,0.00,0,WeatherCatV1.10B1570,2013-01-19 06:15:00,
2013-01-19 01:20:00,28.1,26.9,30.53,WSW,243,0.0,0.0,95,0.00,,,0.00,0,WeatherCatV1.10B1570,2013-01-19 06:20:00,
2013-01-19 01:25:00,28.2,26.7,30.53,WSW,243,0.0,0.0,94,0.00,,,0.00,0,WeatherCatV1.10B1570,2013-01-19 06:25:00,
2013-01-19 01:30:00,28.0,26.8,30.53,WSW,243,0.0,0.0,95,0.00,,,0.00,0,WeatherCatV1.10B1570,2013-01-19 06:30:00,
2013-01-19 01:35:00,28.0,26.8,30.53,WSW,243,0.0,0.0,95,0.00,,,0.00,0,WeatherCatV1.10B1570,2013-01-19 06:35:00,
2013-01-19 01:40:00,27.7,26.5,30.53,WSW,243,0.0,0.0,95,0.00,,,0.00,0,WeatherCatV1.10B1570,2013-01-19 06:40:00,
2013-01-19 01:45:00,27.8,26.6,30.53,WSW,243,0.0,0.0,95,0.00,,,0.00,0,WeatherCatV1.10B1570,2013-01-19 06:45:00,
2013-01-19 01:50:00,27.6,26.4,30.53,WSW,243,0.0,0.0,95,0.00,,,0.00,0,WeatherCatV1.10B1570,2013-01-19 06:50:00,
2013-01-19 01:55:00,27.6,26.4,30.53,WSW,243,0.0,0.0,95,0.00,,,0.00,0,WeatherCatV1.10B1570,2013-01-19 06:55:00,
2013-01-19 02:00:00,27.7,26.5,30.53,WSW,243,0.0,0.0,95,0.00,,,0.00,0,WeatherCatV1.10B1570,2013-01-19 07:00:00,
2013-01-19 02:05:00,27.4,26.2,30.53,WSW,243,0.0,0.0,95,0.00,,,0.00,0,WeatherCatV1.10B1570,2013-01-19 07:05:00,
2013-01-19 02:10:00,27.2,26.0,30.53,WSW,243,0.0,0.0,95,0.00,,,0.00,0,WeatherCatV1.10B1570,2013-01-19 07:10:00,
2013-01-19 02:15:00,27.1,26.1,30.53,WSW,243,0.0,0.0,96,0.00,,,0.00,0,WeatherCatV1.10B1570,2013-01-19 07:15:00,
2013-01-19 02:20:00,27.1,26.1,30.53,WSW,243,0.0,0.0,96,0.00,,,0.00,0,WeatherCatV1.10B1570,2013-01-19 07:20:00,
2013-01-19 02:25:00,27.3,26.1,30.53,WSW,243,0.0,0.0,95,0.00,,,0.00,0,WeatherCatV1.10B1570,2013-01-19 07:25:00,
2013-01-19 02:30:00,27.1,25.9,30.52,WSW,243,0.0,0.0,95,0.00,,,0.00,0,WeatherCatV1.10B1570,2013-01-19 07:30:00,
2013-01-19 02:35:00,27.2,26.0,30.52,WSW,243,0.0,0.0,95,0.00,,,0.00,0,WeatherCatV1.10B1570,2013-01-19 07:35:00,
2013-01-19 02:40:00,27.5,26.3,30.52,WSW,243,0.0,0.0,95,0.00,,,0.00,0,WeatherCatV1.10B1570,2013-01-19 07:40:00,
2013-01-19 02:45:00,27.3,25.8,30.52,WSW,243,0.0,0.0,94,0.00,,,0.00,0,WeatherCatV1.10B1570,2013-01-19 07:45:00,
2013-01-19 02:50:00,27.0,25.8,30.52,WSW,243,0.0,0.0,95,0.00,,,0.00,0,WeatherCatV1.10B1570,2013-01-19 07:50:00,
2013-01-19 02:55:00,26.9,25.7,30.52,WSW,243,0.0,0.0,95,0.00,,,0.00,0,WeatherCatV1.10B1570,2013-01-19 07:55:00,
2013-01-19 03:00:00,27.0,26.0,30.53,WSW,243,0.0,1.0,96,0.00,,,0.00,0,WeatherCatV1.10B1570,2013-01-19 08:00:00,
2013-01-19 03:05:00,27.8,26.3,30.53,WSW,243,0.0,0.0,94,0.00,,,0.00,0,WeatherCatV1.10B1570,2013-01-19 08:05:00,
2013-01-19 03:10:00,28.1,26.6,30.53,WSW,243,0.0,1.0,94,0.00,,,0.00,0,WeatherCatV1.10B1570,2013-01-19 08:10:00,
2013-01-19 03:15:00,28.4,26.6,30.53,WSW,243,0.0,0.0,93,0.00,,,0.00,0,WeatherCatV1.10B1570,2013-01-19 08:15:00,
2013-01-19 03:20:00,28.1,26.1,30.53,WSW,243,0.0,0.0,92,0.00,,,0.00,0,WeatherCatV1.10B1570,2013-01-19 08:20:00,
2013-01-19 03:25:00,27.5,25.7,30.53,WSW,243,0.0,1.0,93,0.00,,,0.00,0,WeatherCatV1.10B1570,2013-01-19 08:25:00,
2013-01-19 03:30:00,29.0,27.0,30.53,WSW,243,0.0,1.0,92,0.00,,,0.00,0,WeatherCatV1.10B1570,2013-01-19 08:30:00,
2013-01-19 03:35:00,29.4,26.6,30.53,WSW,243,0.0,0.0,89,0.00,,,0.00,0,WeatherCatV1.10B1570,2013-01-19 08:35:00,
2013-01-19 03:40:00,29.2,26.1,30.53,WSW,243,1.0,1.0,88,0.00,,,0.00,0,WeatherCatV1.10B1570,2013-01-19 08:40:00,
2013-01-19 03:45:00,29.4,26.6,30.53,WSW,243,0.0,0.0,89,0.00,,,0.00,0,WeatherCatV1.10B1570,2013-01-19 08:45:00,
2013-01-19 03:50:00,29.0,26.2,30.53,WSW,243,0.0,0.0,89,0.00,,,0.00,0,WeatherCatV1.10B1570,2013-01-19 08:50:00,
2013-01-19 03:55:00,28.4,26.1,30.53,WSW,243,0.0,0.0,91,0.00,,,0.00,0,WeatherCatV1.10B1570,2013-01-19 08:55:00,
2013-01-19 04:00:00,27.9,25.9,30.53,WSW,243,0.0,0.0,92,0.00,,,0.00,0,WeatherCatV1.10B1570,2013-01-19 09:00:00,
2013-01-19 04:05:00,27.6,25.8,30.53,WSW,243,0.0,1.0,93,0.00,,,0.00,0,WeatherCatV1.10B1570,2013-01-19 09:05:00,
2013-01-19 04:10:00,27.3,25.8,30.53,WSW,243,0.0,0.0,94,0.00,,,0.00,0,WeatherCatV1.10B1570,2013-01-19 09:10:00,
2013-01-19 04:15:00,27.6,26.1,30.53,WSW,243,0.0,0.0,94,0.00,,,0.00,0,WeatherCatV1.10B1570,2013-01-19 09:15:00,
2013-01-19 04:20:00,27.7,26.2,30.53,WSW,243,0.0,0.0,94,0.00,,,0.00,0,WeatherCatV1.10B1570,2013-01-19 09:20:00,
2013-01-19 04:25:00,27.5,26.0,30.53,WSW,243,0.0,0.0,94,0.00,,,0.00,0,WeatherCatV1.10B1570,2013-01-19 09:25:00,
2013-01-19 04:30:00,27.4,25.9,30.53,WSW,243,0.0,0.0,94,0.00,,,0.00,0,WeatherCatV1.10B1570,2013-01-19 09:30:00,
2013-01-19 04:35:00,27.2,26.0,30.53,WSW,243,0.0,0.0,95,0.00,,,0.00,0,WeatherCatV1.10B1570,2013-01-19 09:35:00,
2013-01-19 04:40:00,27.0,25.8,30.52,WSW,243,0.0,1.0,95,0.00,,,0.00,0,WeatherCatV1.10B1570,2013-01-19 09:40:00,
2013-01-19 04:45:00,26.9,25.7,30.52,WSW,243,0.0,0.0,95,0.00,,,0.00,0,WeatherCatV1.10B1570,2013-01-19 09:45:00,
2013-01-19 04:50:00,26.9,25.7,30.52,WSW,243,0.0,0.0,95,0.00,,,0.00,0,WeatherCatV1.10B1570,2013-01-19 09:50:00,
2013-01-19 04:55:00,26.7,25.5,30.52,WSW,243,0.0,0.0,95,0.00,,,0.00,0,WeatherCatV1.10B1570,2013-01-19 09:55:00,
2013-01-19 05:00:00,26.9,25.7,30.52,WSW,243,0.0,0.0,95,0.00,,,0.00,0,WeatherCatV1.10B1570,2013-01-19 10:00:00,
2013-01-19 05:05:00,26.7,25.5,30.52,WSW,243,0.0,0.0,95,0.00,,,0.00,0,WeatherCatV1.10B1570,2013-01-19 10:05:00,
2013-01-19 05:10:00,27.1,25.9,30.52,WSW,243,0.0,1.0,95,0.00,,,0.00,0,WeatherCatV1.10B1570,2013-01-19 10:10:00,
2013-01-19 05:15:00,28.3,26.0,30.52,WSW,243,0.0,0.0,91,0.00,,,0.00,0,WeatherCatV1.10B1570,2013-01-19 10:15:00,
2013-01-19 05:20:00,28.6,25.5,30.52,WSW,243,0.0,0.0,88,0.00,,,0.00,0,WeatherCatV1.10B1570,2013-01-19 10:20:00,
2013-01-19 05:25:00,27.9,25.4,30.53,WSW,243,0.0,0.0,90,0.00,,,0.00,0,WeatherCatV1.10B1570,2013-01-19 10:25:00,
2013-01-19 05:30:00,28.0,25.2,30.53,WSW,243,0.0,1.0,89,0.00,,,0.00,0,WeatherCatV1.10B1570,2013-01-19 10:30:00,
2013-01-19 05:35:00,28.0,25.2,30.53,WSW,243,0.0,0.0,89,0.00,,,0.00,0,WeatherCatV1.10B1570,2013-01-19 10:35:00,
2013-01-19 05:40:00,27.5,25.2,30.53,WSW,243,0.0,0.0,91,0.00,,,0.00,0,WeatherCatV1.10B1570,2013-01-19 10:40:00,
2013-01-19 05:45:00,27.4,25.1,30.53,WSW,243,0.0,2.0,91,0.00,,,0.00,0,WeatherCatV1.10B1570,2013-01-19 10:45:00,
2013-01-19 05:50:00,27.2,25.2,30.53,WSW,243,0.0,0.0,92,0.00,,,0.00,0,WeatherCatV1.10B1570,2013-01-19 10:50:00,
2013-01-19 05:55:00,26.8,25.1,30.53,WSW,243,0.0,1.0,93,0.00,,,0.00,0,WeatherCatV1.10B1570,2013-01-19 10:55:00,
2013-01-19 06:00:00,26.9,25.4,30.53,WSW,243,0.0,0.0,94,0.00,,,0.00,0,WeatherCatV1.10B1570,2013-01-19 11:00:00,
2013-01-19 06:05:00,26.5,25.0,30.53,WSW,243,0.0,0.0,94,0.00,,,0.00,0,WeatherCatV1.10B1570,2013-01-19 11:05:00,
2013-01-19 06:10:00,26.3,24.8,30.53,WSW,243,0.0,0.0,94,0.00,,,0.00,0,WeatherCatV1.10B1570,2013-01-19 11:10:00,
2013-01-19 06:15:00,26.2,25.0,30.53,WSW,243,0.0,0.0,95,0.00,,,0.00,0,WeatherCatV1.10B1570,2013-01-19 11:15:00,
2013-01-19 06:20:00,26.2,25.0,30.53,WSW,248,0.0,0.0,95,0.00,,,0.00,0,WeatherCatV1.10B1570,2013-01-19 11:20:00,
2013-01-19 06:25:00,26.2,25.0,30.53,WSW,248,0.0,0.0,95,0.00,,,0.00,0,WeatherCatV1.10B1570,2013-01-19 11:25:00,
2013-01-19 06:30:00,26.1,24.9,30.53,WSW,248,0.0,0.0,95,0.00,,,0.00,0,WeatherCatV1.10B1570,2013-01-19 11:30:00,
2013-01-19 06:35:00,26.0,24.8,30.53,WSW,248,0.0,2.0,95,0.00,,,0.00,0,WeatherCatV1.10B1570,2013-01-19 11:35:00,
2013-01-19 06:40:00,26.2,25.0,30.53,West,270,0.0,2.0,95,0.00,,,0.00,0,WeatherCatV1.10B1570,2013-01-19 11:40:00,
2013-01-19 06:45:00,25.9,24.4,30.53,West,270,0.0,0.0,94,0.00,,,0.00,0,WeatherCatV1.10B1570,2013-01-19 11:45:00,
2013-01-19 06:50:00,25.7,24.5,30.52,West,270,0.0,0.0,95,0.00,,,0.00,0,WeatherCatV1.10B1570,2013-01-19 11:50:00,
2013-01-19 06:55:00,25.8,24.6,30.53,West,270,0.0,0.0,95,0.00,,,0.00,0,WeatherCatV1.10B1570,2013-01-19 11:55:00,
2013-01-19 07:00:00,25.5,24.3,30.52,West,270,0.0,0.0,95,0.00,,,0.00,0,WeatherCatV1.10B1570,2013-01-19 12:00:00,
2013-01-19 07:05:00,25.2,24.0,30.52,West,270,0.0,0.0,95,0.00,,,0.00,0,WeatherCatV1.10B1570,2013-01-19 12:05:00,
2013-01-19 07:10:00,25.4,24.4,30.52,West,270,0.0,0.0,96,0.00,,,0.00,0,WeatherCatV1.10B1570,2013-01-19 12:10:00,
2013-01-19 07:15:00,25.5,24.5,30.52,West,270,0.0,0.0,96,0.00,,,0.00,0,WeatherCatV1.10B1570,2013-01-19 12:15:00,
2013-01-19 07:20:00,25.4,24.4,30.52,West,270,0.0,0.0,96,0.00,,,0.00,0,WeatherCatV1.10B1570,2013-01-19 12:20:00,
2013-01-19 07:25:00,25.3,24.3,30.52,West,270,0.0,0.0,96,0.00,,,0.00,0,WeatherCatV1.10B1570,2013-01-19 12:25:00,
2013-01-19 07:30:00,25.4,24.4,30.52,West,270,0.0,0.0,96,0.00,,,0.00,0,WeatherCatV1.10B1570,2013-01-19 12:30:00,
2013-01-19 07:35:00,25.5,24.5,30.52,West,270,0.0,1.0,96,0.00,,,0.00,3,WeatherCatV1.10B1570,2013-01-19 12:35:00,
2013-01-19 07:40:00,25.2,24.2,30.52,West,270,0.0,0.0,96,0.00,,,0.00,6,WeatherCatV1.10B1570,2013-01-19 12:40:00,
2013-01-19 07:45:00,25.6,24.6,30.52,West,270,0.0,0.0,96,0.00,,,0.00,9,WeatherCatV1.10B1570,2013-01-19 12:45:00,
2013-01-19 07:50:00,25.7,24.7,30.52,West,270,0.0,0.0,96,0.00,,,0.00,11,WeatherCatV1.10B1570,2013-01-19 12:50:00,
2013-01-19 07:55:00,26.2,25.2,30.52,West,270,0.0,0.0,96,0.00,,,0.00,13,WeatherCatV1.10B1570,2013-01-19 12:55:00,
2013-01-19 08:00:00,26.5,25.3,30.52,West,270,0.0,0.0,95,0.00,,,0.00,16,WeatherCatV1.10B1570,2013-01-19 13:00:00,
2013-01-19 08:05:00,26.8,25.3,30.52,West,270,0.0,0.0,94,0.00,,,0.00,19,WeatherCatV1.10B1570,2013-01-19 13:05:00,
2013-01-19 08:10:00,27.3,25.6,30.52,West,270,0.0,0.0,93,0.00,,,0.00,24,WeatherCatV1.10B1570,2013-01-19 13:10:00,
2013-01-19 08:15:00,27.0,25.5,30.52,West,270,0.0,0.0,94,0.00,,,0.00,34,WeatherCatV1.10B1570,2013-01-19 13:15:00,
2013-01-19 08:20:00,26.9,25.4,30.52,West,270,0.0,1.0,94,0.00,,,0.00,42,WeatherCatV1.10B1570,2013-01-19 13:20:00,
2013-01-19 08:25:00,27.3,26.1,30.52,West,270,0.0,1.0,95,0.00,,,0.00,49,WeatherCatV1.10B1570,2013-01-19 13:25:00,
2013-01-19 08:30:00,28.6,26.6,30.52,WSW,248,1.0,2.0,92,0.00,,,0.00,64,WeatherCatV1.10B1570,2013-01-19 13:30:00,
2013-01-19 08:35:00,29.9,26.5,30.52,SSW,202,1.0,3.0,87,0.00,,,0.00,63,WeatherCatV1.10B1570,2013-01-19 13:35:00,
2013-01-19 08:40:00,30.8,26.5,30.52,WSW,248,1.0,3.0,84,0.00,,,0.00,82,WeatherCatV1.10B1570,2013-01-19 13:40:00,
2013-01-19 08:52:00,31.0,26.7,30.52,SW,225,1.0,3.0,84,0.00,,,0.00,86,WeatherCatV1.10B1570,2013-01-19 13:52:00,
2013-01-19 08:57:00,33.1,27.0,30.52,SSW,201,3.0,7.0,78,0.00,,,0.00,47,WeatherCatV1.10B1570,2013-01-19 13:57:00,
2013-01-19 09:02:00,33.6,26.5,30.52,SW,215,2.0,6.0,75,0.00,,,0.00,116,WeatherCatV1.10B1570,2013-01-19 14:02:00,
2013-01-19 09:07:00,33.9,27.5,30.51,SW,227,1.0,2.0,77,0.00,,,0.00,142,WeatherCatV1.10B1570,2013-01-19 14:07:00,
2013-01-19 09:12:00,34.3,27.2,30.51,WSW,250,1.0,2.0,75,0.00,,,0.00,69,WeatherCatV1.10B1570,2013-01-19 14:12:00,
2013-01-19 09:17:00,34.8,27.4,30.51,SSW,192,1.0,3.0,74,0.00,,,0.00,98,WeatherCatV1.10B1570,2013-01-19 14:17:00,
2013-01-19 09:21:00,35.1,27.3,30.51,West,272,1.0,2.0,73,0.00,,,0.00,58,WeatherCatV1.10B1570,2013-01-19 14:21:00,
2013-01-19 09:26:00,35.6,27.1,30.51,SW,218,1.0,4.0,71,0.00,,,0.00,111,WeatherCatV1.10B1570,2013-01-19 14:26:00,
2013-01-19 09:31:00,36.0,27.5,30.51,SSW,211,2.0,5.0,71,0.00,,,0.00,114,WeatherCatV1.10B1570,2013-01-19 14:31:00,
2013-01-19 09:36:00,36.3,27.1,30.51,SSW,201,3.0,3.0,69,0.00,,,0.00,213,WeatherCatV1.10B1570,2013-01-19 14:36:00,
2013-01-19 09:41:00,36.7,27.5,30.51,WSW,253,2.0,5.0,69,0.00,,,0.00,190,WeatherCatV1.10B1570,2013-01-19 14:41:00,
2013-01-19 09:46:00,37.0,27.1,30.51,WNW,282,2.0,5.0,67,0.00,,,0.00,130,WeatherCatV1.10B1570,2013-01-19 14:46:00,
2013-01-19 09:51:00,37.4,27.1,30.52,SW,222,1.0,2.0,66,0.00,,,0.00,214,WeatherCatV1.10B1570,2013-01-19 14:51:00,
2013-01-19 09:56:00,37.9,27.6,30.51,WNW,296,0.0,3.0,66,0.00,,,0.00,283,WeatherCatV1.10B1570,2013-01-19 14:56:00,
2013-01-19 10:01:00,38.1,27.4,30.51,South,169,1.0,3.0,65,0.00,,,0.00,329,WeatherCatV1.10B1570,2013-01-19 15:01:00,
2013-01-19 10:06:00,38.3,27.2,30.51,WSW,240,4.0,5.0,64,0.00,,,0.00,193,WeatherCatV1.10B1570,2013-01-19 15:06:00,
2013-01-19 10:11:00,38.5,27.4,30.51,SW,230,2.0,4.0,64,0.00,,,0.01,406,WeatherCatV1.10B1570,2013-01-19 15:11:00,
2013-01-19 10:16:00,39.0,27.5,30.50,SSW,200,0.0,4.0,63,0.00,,,0.01,207,WeatherCatV1.10B1570,2013-01-19 15:16:00,
2013-01-19 10:21:00,39.2,27.3,30.50,SSW,203,2.0,6.0,62,0.00,,,0.01,355,WeatherCatV1.10B1570,2013-01-19 15:21:00,
2013-01-19 10:26:00,39.7,27.4,30.50,South,185,3.0,3.0,61,0.00,,,0.01,457,WeatherCatV1.10B1570,2013-01-19 15:26:00,
2013-01-19 10:31:00,40.1,27.7,30.50,South,184,3.0,5.0,61,0.00,,,0.01,468,WeatherCatV1.10B1570,2013-01-19 15:31:00,
2013-01-19 10:36:00,40.3,27.1,30.50,SSW,205,2.0,4.0,59,0.00,,,0.01,476,WeatherCatV1.10B1570,2013-01-19 15:36:00,
2013-01-19 10:41:00,40.9,26.9,30.49,SSW,200,2.0,5.0,57,0.00,,,0.01,485,WeatherCatV1.10B1570,2013-01-19 15:41:00,
2013-01-19 10:46:00,41.1,27.0,30.49,South,184,5.0,5.0,57,0.00,,,0.01,494,WeatherCatV1.10B1570,2013-01-19 15:46:00,
2013-01-19 10:51:00,41.2,27.6,30.49,SSW,199,4.0,4.0,58,0.00,,,0.01,501,WeatherCatV1.10B1570,2013-01-19 15:51:00,
2013-01-19 10:56:00,41.4,27.3,30.49,SSW,200,3.0,6.0,57,0.00,,,0.01,508,WeatherCatV1.10B1570,2013-01-19 15:56:00,
2013-01-19 11:01:00,41.6,27.1,30.48,SSW,207,2.0,4.0,56,0.00,,,0.02,515,WeatherCatV1.10B1570,2013-01-19 16:01:00,
2013-01-19 11:06:00,41.8,26.8,30.48,SSW,202,3.0,8.0,55,0.00,,,0.02,520,WeatherCatV1.10B1570,2013-01-19 16:06:00,
2013-01-19 11:11:00,41.9,27.4,30.48,South,186,2.0,5.0,56,0.00,,,0.02,526,WeatherCatV1.10B1570,2013-01-19 16:11:00,
2013-01-19 11:16:00,42.3,27.7,30.48,SSW,201,3.0,4.0,56,0.00,,,0.02,531,WeatherCatV1.10B1570,2013-01-19 16:16:00,
2013-01-19 11:21:00,42.4,28.7,30.47,SSW,207,1.0,4.0,58,0.00,,,0.02,538,WeatherCatV1.10B1570,2013-01-19 16:21:00,
2013-01-19 11:26:00,43.2,29.9,30.47,SSW,201,1.0,1.0,59,0.00,,,0.02,543,WeatherCatV1.10B1570,2013-01-19 16:26:00,
2013-01-19 11:31:00,43.6,29.0,30.47,South,180,1.0,3.0,56,0.00,,,0.02,550,WeatherCatV1.10B1570,2013-01-19 16:31:00,
2013-01-19 11:36:00,43.8,28.2,30.46,South,183,2.0,5.0,54,0.00,,,0.02,557,WeatherCatV1.10B1570,2013-01-19 16:36:00,
2013-01-19 11:41:00,44.0,29.8,30.46,SSW,199,3.0,4.0,57,0.00,,,0.02,563,WeatherCatV1.10B1570,2013-01-19 16:41:00,
2013-01-19 11:46:00,44.3,28.3,30.45,NW,314,0.0,3.0,53,0.00,,,0.02,568,WeatherCatV1.10B1570,2013-01-19 16:46:00,
2013-01-19 11:51:00,44.2,27.7,30.45,WSW,257,2.0,5.0,52,0.00,,,0.02,577,WeatherCatV1.10B1570,2013-01-19 16:51:00,
2013-01-19 11:56:00,44.4,27.9,30.44,WSW,242,1.0,5.0,52,0.00,,,0.02,582,WeatherCatV1.10B1570,2013-01-19 16:56:00,
2013-01-19 12:01:00,44.3,27.8,30.44,SSW,211,4.0,5.0,52,0.00,,,0.02,587,WeatherCatV1.10B1570,2013-01-19 17:01:00,
2013-01-19 12:06:00,44.4,26.9,30.44,WSW,249,2.0,5.0,50,0.00,,,0.02,589,WeatherCatV1.10B1570,2013-01-19 17:06:00,
2013-01-19 12:11:00,44.9,27.4,30.43,NW,306,2.0,7.0,50,0.00,,,0.02,591,WeatherCatV1.10B1570,2013-01-19 17:11:00,
2013-01-19 12:16:00,45.1,28.1,30.43,SW,222,2.0,5.0,51,0.00,,,0.02,594,WeatherCatV1.10B1570,2013-01-19 17:16:00,
2013-01-19 12:21:00,44.9,27.9,30.42,South,190,3.0,6.0,51,0.00,,,0.02,594,WeatherCatV1.10B1570,2013-01-19 17:21:00,
2013-01-19 12:26:00,45.1,27.6,30.42,WSW,253,2.0,4.0,50,0.00,,,0.02,598,WeatherCatV1.10B1570,2013-01-19 17:26:00,
2013-01-19 12:31:00,45.8,27.7,30.41,WSW,257,2.0,7.0,49,0.00,,,0.02,599,WeatherCatV1.10B1570,2013-01-19 17:31:00,
2013-01-19 12:37:00,46.0,28.9,30.41,SSW,202,3.0,4.0,51,0.00,,,0.02,599,WeatherCatV1.10B1570,2013-01-19 17:37:00,
2013-01-19 12:42:00,45.9,28.8,30.40,SSW,203,1.0,4.0,51,0.00,,,0.02,599,WeatherCatV1.10B1570,2013-01-19 17:42:00,
2013-01-19 12:47:00,46.5,27.9,30.40,NW,315,6.0,8.0,48,0.00,,,0.02,598,WeatherCatV1.10B1570,2013-01-19 17:47:00,
2013-01-19 12:52:00,46.2,28.6,30.39,South,191,6.0,6.0,50,0.00,,,0.02,596,WeatherCatV1.10B1570,2013-01-19 17:52:00,
2013-01-19 12:57:00,46.3,28.2,30.39,West,273,4.0,6.0,49,0.00,,,0.02,594,WeatherCatV1.10B1570,2013-01-19 17:57:00,
2013-01-19 13:02:00,46.5,30.3,30.39,WSW,240,1.0,2.0,53,0.00,,,0.02,592,WeatherCatV1.10B1570,2013-01-19 18:02:00,
2013-01-19 13:07:00,47.2,29.0,30.38,SW,228,4.0,5.0,49,0.00,,,0.02,589,WeatherCatV1.10B1570,2013-01-19 18:07:00,
2013-01-19 13:12:00,47.1,29.4,30.38,SW,218,2.0,5.0,50,0.00,,,0.02,589,WeatherCatV1.10B1570,2013-01-19 18:12:00,
2013-01-19 13:17:00,47.1,28.9,30.37,West,265,5.0,5.0,49,0.00,,,0.02,582,WeatherCatV1.10B1570,2013-01-19 18:17:00,
2013-01-19 13:22:00,46.7,30.0,30.37,SSE,166,2.0,3.0,52,0.00,,,0.02,580,WeatherCatV1.10B1570,2013-01-19 18:22:00,
2013-01-19 13:27:00,47.8,30.6,30.37,SSW,194,2.0,4.0,51,0.00,,,0.02,575,WeatherCatV1.10B1570,2013-01-19 18:27:00,
2013-01-19 13:32:00,47.0,29.3,30.36,SSE,161,4.0,5.0,50,0.00,,,0.02,571,WeatherCatV1.10B1570,2013-01-19 18:32:00,
2013-01-19 13:37:00,47.5,30.8,30.36,SSW,198,3.0,5.0,52,0.00,,,0.02,564,WeatherCatV1.10B1570,2013-01-19 18:37:00,
2013-01-19 13:42:00,47.2,30.0,30.36,SSW,202,2.0,4.0,51,0.00,,,0.02,557,WeatherCatV1.10B1570,2013-01-19 18:42:00,
2013-01-19 13:47:00,47.4,30.2,30.35,SSE,160,4.0,4.0,51,0.00,,,0.02,550,WeatherCatV1.10B1570,2013-01-19 18:47:00,
2013-01-19 13:52:00,47.9,30.7,30.35,SSW,194,3.0,3.0,51,0.00,,,0.02,547,WeatherCatV1.10B1570,2013-01-19 18:52:00,
2013-01-19 13:57:00,48.4,30.1,30.35,SSW,199,3.0,4.0,49,0.00,,,0.02,540,WeatherCatV1.10B1570,2013-01-19 18:57:00,
2013-01-19 14:02:00,48.3,29.5,30.34,SSW,194,2.0,7.0,48,0.00,,,0.02,531,WeatherCatV1.10B1570,2013-01-19 19:02:00,
2013-01-19 14:07:00,48.1,30.8,30.34,SSW,199,4.0,6.0,51,0.00,,,0.02,524,WeatherCatV1.10B1570,2013-01-19 19:07:00,
2013-01-19 14:12:00,48.1,30.3,30.34,SSW,203,3.0,4.0,50,0.00,,,0.02,515,WeatherCatV1.10B1570,2013-01-19 19:12:00,
2013-01-19 14:17:00,48.2,29.4,30.34,SSE,159,4.0,7.0,48,0.00,,,0.02,506,WeatherCatV1.10B1570,2013-01-19 19:17:00,
2013-01-19 14:22:00,48.3,29.0,30.34,SSW,199,3.0,6.0,47,0.00,,,0.02,496,WeatherCatV1.10B1570,2013-01-19 19:22:00,
2013-01-19 14:27:00,48.2,29.4,30.33,SSW,203,5.0,7.0,48,0.00,,,0.02,483,WeatherCatV1.10B1570,2013-01-19 19:27:00,
2013-01-19 14:32:00,48.1,28.8,30.33,SSE,161,4.0,7.0,47,0.00,,,0.02,476,WeatherCatV1.10B1570,2013-01-19 19:32:00,
2013-01-19 14:37:00,48.4,30.1,30.33,South,180,1.0,4.0,49,0.00,,,0.02,464,WeatherCatV1.10B1570,2013-01-19 19:37:00,
2013-01-19 14:42:00,48.9,31.1,30.33,South,186,5.0,6.0,50,0.00,,,0.02,452,WeatherCatV1.10B1570,2013-01-19 19:42:00,
2013-01-19 14:47:00,48.7,29.4,30.33,SW,232,3.0,3.0,47,0.00,,,0.02,441,WeatherCatV1.10B1570,2013-01-19 19:47:00,
2013-01-19 14:52:00,48.9,29.0,30.32,SSW,203,2.0,5.0,46,0.00,,,0.02,425,WeatherCatV1.10B1570,2013-01-19 19:52:00,
2013-01-19 14:57:00,49.0,30.2,30.32,SSW,201,2.0,2.0,48,0.00,,,0.02,339,WeatherCatV1.10B1570,2013-01-19 19:57:00,
2013-01-19 15:02:00,49.2,30.4,30.32,SSE,151,3.0,4.0,48,0.00,,,0.02,262,WeatherCatV1.10B1570,2013-01-19 20:02:00,
2013-01-19 15:07:00,49.2,29.8,30.31,SSW,202,2.0,3.0,47,0.00,,,0.02,192,WeatherCatV1.10B1570,2013-01-19 20:07:00,
2013-01-19 15:12:00,49.5,31.1,30.31,SSE,148,3.0,4.0,49,0.00,,,0.02,220,WeatherCatV1.10B1570,2013-01-19 20:12:00,
2013-01-19 15:18:00,49.5,30.1,30.31,South,182,2.0,4.0,47,0.00,,,0.02,202,WeatherCatV1.10B1570,2013-01-19 20:18:00,
2013-01-19 15:23:00,49.6,29.1,30.30,SSE,158,4.0,6.0,45,0.00,,,0.02,186,WeatherCatV1.10B1570,2013-01-19 20:23:00,
2013-01-19 15:28:00,49.6,28.6,30.30,South,186,2.0,6.0,44,0.00,,,0.02,253,WeatherCatV1.10B1570,2013-01-19 20:28:00,
2013-01-19 15:33:00,49.7,28.1,30.30,SSE,157,1.0,5.0,43,0.00,,,0.02,200,WeatherCatV1.10B1570,2013-01-19 20:33:00,
2013-01-19 15:38:00,49.7,29.8,30.30,SSW,202,4.0,6.0,46,0.00,,,0.02,176,WeatherCatV1.10B1570,2013-01-19 20:38:00,
2013-01-19 15:43:00,49.7,29.2,30.30,SSW,206,3.0,5.0,45,0.00,,,0.02,227,WeatherCatV1.10B1570,2013-01-19 20:43:00,
2013-01-19 15:48:00,49.8,28.8,30.30,SSW,196,2.0,5.0,44,0.00,,,0.02,155,WeatherCatV1.10B1570,2013-01-19 20:48:00,
2013-01-19 15:53:00,50.0,28.4,30.30,SSW,196,2.0,5.0,43,0.00,,,0.02,251,WeatherCatV1.10B1570,2013-01-19 20:53:00,
2013-01-19 15:58:00,50.0,28.4,30.29,SSW,197,2.0,8.0,43,0.00,,,0.02,239,WeatherCatV1.10B1570,2013-01-19 20:58:00,
2013-01-19 16:03:00,50.1,28.5,30.29,SSW,199,2.0,3.0,43,0.00,,,0.02,225,WeatherCatV1.10B1570,2013-01-19 21:03:00,
2013-01-19 16:08:00,50.1,27.9,30.29,SSW,203,4.0,7.0,42,0.00,,,0.02,206,WeatherCatV1.10B1570,2013-01-19 21:08:00,
2013-01-19 16:13:00,50.3,27.5,30.29,SSW,194,3.0,5.0,41,0.00,,,0.02,174,WeatherCatV1.10B1570,2013-01-19 21:13:00,
2013-01-19 16:18:00,50.3,28.1,30.29,South,188,1.0,5.0,42,0.00,,,0.02,148,WeatherCatV1.10B1570,2013-01-19 21:18:00,
2013-01-19 16:23:00,50.1,27.9,30.28,SSW,197,4.0,6.0,42,0.00,,,0.02,93,WeatherCatV1.10B1570,2013-01-19 21:23:00,
2013-01-19 16:28:00,50.0,27.8,30.28,SSW,197,3.0,5.0,42,0.00,,,0.02,63,WeatherCatV1.10B1570,2013-01-19 21:28:00,
2013-01-19 16:33:00,49.9,27.7,30.28,SSW,197,4.0,4.0,42,0.00,,,0.02,54,WeatherCatV1.10B1570,2013-01-19 21:33:00,
2013-01-19 16:38:00,49.7,27.6,30.28,SSW,201,1.0,5.0,42,0.00,,,0.02,47,WeatherCatV1.10B1570,2013-01-19 21:38:00,
2013-01-19 16:43:00,49.7,28.1,30.28,SSW,194,2.0,6.0,43,0.00,,,0.02,33,WeatherCatV1.10B1570,2013-01-19 21:43:00,
2013-01-19 16:48:00,49.5,27.9,30.28,SSW,199,0.0,5.0,43,0.00,,,0.02,39,WeatherCatV1.10B1570,2013-01-19 21:48:00,
2013-01-19 16:53:00,49.0,28.0,30.28,SSW,194,2.0,5.0,44,0.00,,,0.02,32,WeatherCatV1.10B1570,2013-01-19 21:53:00,
2013-01-19 16:58:00,49.0,28.6,30.28,SSW,194,1.0,3.0,45,0.00,,,0.02,23,WeatherCatV1.10B1570,2013-01-19 21:58:00,
2013-01-19 17:03:00,48.5,28.7,30.28,SSW,195,1.0,2.0,46,0.00,,,0.02,18,WeatherCatV1.10B1570,2013-01-19 22:03:00,
2013-01-19 17:08:00,48.6,28.8,30.28,SSW,195,0.0,1.0,46,0.00,,,0.02,14,WeatherCatV1.10B1570,2013-01-19 22:08:00,
2013-01-19 17:13:00,48.3,29.5,30.28,SSW,195,0.0,0.0,48,0.00,,,0.02,12,WeatherCatV1.10B1570,2013-01-19 22:13:00,
2013-01-19 17:18:00,48.2,28.9,30.28,SSW,195,0.0,2.0,47,0.00,,,0.02,11,WeatherCatV1.10B1570,2013-01-19 22:18:00,
2013-01-19 17:23:00,47.9,29.2,30.28,SSW,195,2.0,2.0,48,0.00,,,0.02,7,WeatherCatV1.10B1570,2013-01-19 22:23:00,
2013-01-19 17:28:00,47.7,29.0,30.27,SSW,194,2.0,3.0,48,0.00,,,0.02,5,WeatherCatV1.10B1570,2013-01-19 22:28:00,
2013-01-19 17:33:00,47.3,29.6,30.27,South,188,2.0,3.0,50,0.00,,,0.02,0,WeatherCatV1.10B1570,2013-01-19 22:33:00,
2013-01-19 17:38:00,47.3,28.1,30.27,South,188,2.0,3.0,47,0.00,,,0.02,0,WeatherCatV1.10B1570,2013-01-19 22:38:00,
2013-01-19 17:43:00,46.9,28.8,30.27,South,188,2.0,2.0,49,0.00,,,0.02,0,WeatherCatV1.10B1570,2013-01-19 22:43:00,
2013-01-19 17:48:00,46.5,28.9,30.27,SSW,196,1.0,2.0,50,0.00,,,0.02,0,WeatherCatV1.10B1570,2013-01-19 22:48:00,
2013-01-19 17:53:00,45.7,29.1,30.27,SSW,196,0.0,1.0,52,0.00,,,0.02,0,WeatherCatV1.10B1570,2013-01-19 22:53:00,
2013-01-19 17:58:00,45.5,28.4,30.27,SSW,196,0.0,2.0,51,0.00,,,0.02,0,WeatherCatV1.10B1570,2013-01-19 22:58:00,
2013-01-19 18:03:00,44.6,29.9,30.27,SSW,196,0.0,0.0,56,0.00,,,0.02,0,WeatherCatV1.10B1570,2013-01-19 23:03:00,
2013-01-19 18:08:00,44.0,28.9,30.27,SSW,196,0.0,0.0,55,0.00,,,0.02,0,WeatherCatV1.10B1570,2013-01-19 23:08:00,
2013-01-19 18:13:00,43.7,28.6,30.27,SSW,196,0.0,0.0,55,0.00,,,0.02,0,WeatherCatV1.10B1570,2013-01-19 23:13:00,
2013-01-19 18:18:00,43.4,29.2,30.27,SSW,196,0.0,0.0,57,0.00,,,0.02,0,WeatherCatV1.10B1570,2013-01-19 23:18:00,
2013-01-19 18:23:00,42.6,29.7,30.27,SSW,196,0.0,0.0,60,0.00,,,0.02,0,WeatherCatV1.10B1570,2013-01-19 23:23:00,
2013-01-19 18:28:00,42.2,29.7,30.27,SSW,196,0.0,0.0,61,0.00,,,0.02,0,WeatherCatV1.10B1570,2013-01-19 23:28:00,
2013-01-19 18:33:00,41.5,29.9,30.27,SSW,196,0.0,0.0,63,0.00,,,0.02,0,WeatherCatV1.10B1570,2013-01-19 23:33:00,
2013-01-19 18:38:00,41.9,29.0,30.27,SSW,196,0.0,0.0,60,0.00,,,0.02,0,WeatherCatV1.10B1570,2013-01-19 23:38:00,
2013-01-19 18:43:00,42.4,29.1,30.27,SSW,196,0.0,0.0,59,0.00,,,0.02,0,WeatherCatV1.10B1570,2013-01-19 23:43:00,
2013-01-19 18:48:00,42.0,29.1,30.27,SSW,196,0.0,0.0,60,0.00,,,0.02,0,WeatherCatV1.10B1570,2013-01-19 23:48:00,
2013-01-19 18:53:00,41.5,30.2,30.27,SSW,196,0.0,0.0,64,0.00,,,0.02,0,WeatherCatV1.10B1570,2013-01-19 23:53:00,
2013-01-19 18:58:00,39.8,30.5,30.27,SSW,196,0.0,0.0,69,0.00,,,0.02,0,WeatherCatV1.10B1570,2013-01-19 23:58:00,
2013-01-19 19:03:00,39.8,29.8,30.27,SSW,196,0.0,0.0,67,0.00,,,0.02,0,WeatherCatV1.10B1570,2013-01-20 00:03:00,
2013-01-19 19:08:00,40.4,29.2,30.27,SSW,196,0.0,0.0,64,0.00,,,0.02,0,WeatherCatV1.10B1570,2013-01-20 00:08:00,
2013-01-19 19:13:00,40.6,29.0,30.27,SSW,196,0.0,0.0,63,0.00,,,0.02,0,WeatherCatV1.10B1570,2013-01-20 00:13:00,
2013-01-19 19:18:00,40.7,29.1,30.27,SSW,196,0.0,0.0,63,0.00,,,0.02,0,WeatherCatV1.10B1570,2013-01-20 00:18:00,
2013-01-19 19:23:00,40.8,29.2,30.27,SSW,196,0.0,0.0,63,0.00,,,0.02,0,WeatherCatV1.10B1570,2013-01-20 00:23:00,
2013-01-19 19:28:00,40.6,29.8,30.28,SSW,196,2.0,2.0,65,0.00,,,0.02,0,WeatherCatV1.10B1570,2013-01-20 00:28:00,
2013-01-19 19:33:00,40.3,29.9,30.27,SSW,196,1.0,1.0,66,0.00,,,0.02,0,WeatherCatV1.10B1570,2013-01-20 00:33:00,
2013-01-19 19:38:00,40.9,30.1,30.27,SSW,195,2.0,3.0,65,0.00,,,0.02,0,WeatherCatV1.10B1570,2013-01-20 00:38:00,
2013-01-19 19:43:00,41.5,29.9,30.27,SSW,196,1.0,3.0,63,0.00,,,0.02,0,WeatherCatV1.10B1570,2013-01-20 00:43:00,
2013-01-19 19:48:00,42.0,29.9,30.27,SSW,193,3.0,3.0,62,0.00,,,0.02,0,WeatherCatV1.10B1570,2013-01-20 00:48:00,
2013-01-19 19:53:00,42.2,29.7,30.27,SSW,198,3.0,4.0,61,0.00,,,0.02,0,WeatherCatV1.10B1570,2013-01-20 00:53:00,
2013-01-19 19:58:00,42.5,29.6,30.27,SSW,196,2.0,3.0,60,0.00,,,0.02,0,WeatherCatV1.10B1570,2013-01-20 00:58:00,
2013-01-19 20:03:00,42.3,29.8,30.27,South,179,2.0,3.0,61,0.00,,,0.02,0,WeatherCatV1.10B1570,2013-01-20 01:03:00,
2013-01-19 20:08:00,42.1,30.0,30.27,SSE,168,0.0,2.0,62,0.00,,,0.02,0,WeatherCatV1.10B1570,2013-01-20 01:08:00,
2013-01-19 20:13:00,41.6,29.6,30.27,South,180,0.0,1.0,62,0.00,,,0.02,0,WeatherCatV1.10B1570,2013-01-20 01:13:00,
2013-01-19 20:18:00,41.0,29.8,30.27,South,182,2.0,2.0,64,0.00,,,0.02,0,WeatherCatV1.10B1570,2013-01-20 01:18:00,
2013-01-19 20:23:00,41.0,29.8,30.27,SSW,210,1.0,2.0,64,0.00,,,0.02,0,WeatherCatV1.10B1570,2013-01-20 01:23:00,
2013-01-19 20:28:00,41.5,29.9,30.27,South,180,2.0,4.0,63,0.00,,,0.02,0,WeatherCatV1.10B1570,2013-01-20 01:28:00,
2013-01-19 20:33:00,41.7,29.7,30.26,South,191,1.0,4.0,62,0.00,,,0.02,0,WeatherCatV1.10B1570,2013-01-20 01:33:00,
2013-01-19 20:38:00,42.5,29.6,30.26,South,191,1.0,5.0,60,0.00,,,0.02,0,WeatherCatV1.10B1570,2013-01-20 01:38:00,
2013-01-19 20:43:00,42.5,29.6,30.26,SSW,195,2.0,3.0,60,0.00,,,0.02,0,WeatherCatV1.10B1570,2013-01-20 01:43:00,
2013-01-19 20:48:00,42.7,29.4,30.26,SSW,198,2.0,3.0,59,0.00,,,0.02,0,WeatherCatV1.10B1570,2013-01-20 01:48:00,
2013-01-19 20:53:00,42.7,29.8,30.26,SSW,193,1.0,3.0,60,0.00,,,0.02,0,WeatherCatV1.10B1570,2013-01-20 01:53:00,
2013-01-19 20:58:00,42.6,29.3,30.26,SSW,193,2.0,2.0,59,0.00,,,0.02,0,WeatherCatV1.10B1570,2013-01-20 01:58:00,
2013-01-19 21:03:00,42.7,29.8,30.26,SSW,195,1.0,2.0,60,0.00,,,0.02,0,WeatherCatV1.10B1570,2013-01-20 02:03:00,
2013-01-19 21:08:00,42.4,29.5,30.25,SSW,195,1.0,2.0,60,0.00,,,0.02,0,WeatherCatV1.10B1570,2013-01-20 02:08:00,
2013-01-19 21:13:00,41.9,29.0,30.25,SSW,195,1.0,3.0,60,0.00,,,0.02,0,WeatherCatV1.10B1570,2013-01-20 02:13:00,
2013-01-19 21:18:00,42.0,29.5,30.25,SSW,195,2.0,2.0,61,0.00,,,0.02,0,WeatherCatV1.10B1570,2013-01-20 02:18:00,
2013-01-19 21:23:00,41.9,29.4,30.25,SSW,195,0.0,2.0,61,0.00,,,0.02,0,WeatherCatV1.10B1570,2013-01-20 02:23:00,
2013-01-19 21:28:00,41.6,29.6,30.25,SSW,195,1.0,1.0,62,0.00,,,0.02,0,WeatherCatV1.10B1570,2013-01-20 02:28:00,
2013-01-19 21:33:00,41.7,29.3,30.25,SSW,195,2.0,3.0,61,0.00,,,0.02,0,WeatherCatV1.10B1570,2013-01-20 02:33:00,
2013-01-19 21:38:00,41.4,29.8,30.24,SSW,195,3.0,3.0,63,0.00,,,0.02,0,WeatherCatV1.10B1570,2013-01-20 02:38:00,
2013-01-19 21:43:00,41.1,29.5,30.24,SSW,193,2.0,3.0,63,0.00,,,0.02,0,WeatherCatV1.10B1570,2013-01-20 02:43:00,
2013-01-19 21:48:00,41.3,29.7,30.24,SSW,193,2.0,2.0,63,0.00,,,0.02,0,WeatherCatV1.10B1570,2013-01-20 02:48:00,
2013-01-19 21:53:00,41.4,29.4,30.24,SSW,193,0.0,2.0,62,0.00,,,0.02,0,WeatherCatV1.10B1570,2013-01-20 02:53:00,
2013-01-19 21:58:00,41.4,29.0,30.24,SSW,193,0.0,0.0,61,0.00,,,0.02,0,WeatherCatV1.10B1570,2013-01-20 02:58:00,
2013-01-19 22:03:00,41.0,29.4,30.24,SSW,193,0.0,0.0,63,0.00,,,0.02,0,WeatherCatV1.10B1570,2013-01-20 03:03:00,
2013-01-19 22:08:00,40.2,29.8,30.24,SSW,193,0.0,0.0,66,0.00,,,0.02,0,WeatherCatV1.10B1570,2013-01-20 03:08:00,
2013-01-19 22:13:00,39.7,30.0,30.23,SSW,193,2.0,2.0,68,0.00,,,0.02,0,WeatherCatV1.10B1570,2013-01-20 03:13:00,
2013-01-19 22:18:00,38.8,29.9,30.23,SSW,193,0.0,1.0,70,0.00,,,0.02,0,WeatherCatV1.10B1570,2013-01-20 03:18:00,
2013-01-19 22:23:00,39.0,29.7,30.23,SSW,193,0.0,2.0,69,0.00,,,0.02,0,WeatherCatV1.10B1570,2013-01-20 03:23:00,
2013-01-19 22:28:00,39.3,30.0,30.23,SSW,193,0.0,0.0,69,0.00,,,0.02,0,WeatherCatV1.10B1570,2013-01-20 03:28:00,
2013-01-19 22:33:00,38.6,30.0,30.22,SSW,193,1.0,2.0,71,0.00,,,0.02,0,WeatherCatV1.10B1570,2013-01-20 03:33:00,
2013-01-19 22:38:00,39.4,29.7,30.22,SSW,197,2.0,2.0,68,0.00,,,0.02,0,WeatherCatV1.10B1570,2013-01-20 03:38:00,
2013-01-19 22:43:00,39.9,29.8,30.22,SSW,197,2.0,2.0,67,0.00,,,0.02,0,WeatherCatV1.10B1570,2013-01-20 03:43:00,
2013-01-19 22:48:00,40.1,30.0,30.22,SSW,197,2.0,3.0,67,0.00,,,0.02,0,WeatherCatV1.10B1570,2013-01-20 03:48:00,
2013-01-19 22:53:00,40.5,29.7,30.21,SSW,197,2.0,3.0,65,0.00,,,0.02,0,WeatherCatV1.10B1570,2013-01-20 03:53:00,
2013-01-19 22:58:00,40.9,29.3,30.21,SSW,195,2.0,3.0,63,0.00,,,0.02,0,WeatherCatV1.10B1570,2013-01-20 03:58:00,
2013-01-19 23:03:00,41.3,29.7,30.21,SSW,192,0.0,1.0,63,0.00,,,0.02,0,WeatherCatV1.10B1570,2013-01-20 04:03:00,
2013-01-19 23:08:00,41.4,29.4,30.21,SSW,193,3.0,3.0,62,0.00,,,0.02,0,WeatherCatV1.10B1570,2013-01-20 04:08:00,
2013-01-19 23:13:00,41.3,29.7,30.21,SSW,194,0.0,3.0,63,0.00,,,0.02,0,WeatherCatV1.10B1570,2013-01-20 04:13:00,
2013-01-19 23:18:00,40.5,29.7,30.21,South,188,1.0,1.0,65,0.00,,,0.02,0,WeatherCatV1.10B1570,2013-01-20 04:18:00,
2013-01-19 23:23:00,40.0,29.6,30.21,South,188,0.0,2.0,66,0.00,,,0.02,0,WeatherCatV1.10B1570,2013-01-20 04:23:00,
2013-01-19 23:28:00,39.3,30.0,30.20,South,191,0.0,2.0,69,0.00,,,0.02,0,WeatherCatV1.10B1570,2013-01-20 04:28:00,
2013-01-19 23:33:00,38.9,30.0,30.20,South,191,1.0,1.0,70,0.00,,,0.02,0,WeatherCatV1.10B1570,2013-01-20 04:33:00,
2013-01-19 23:38:00,39.3,29.6,30.19,South,191,0.0,2.0,68,0.00,,,0.02,0,WeatherCatV1.10B1570,2013-01-20 04:38:00,
2013-01-19 23:43:00,40.5,30.0,30.19,SSW,195,3.0,3.0,66,0.00,,,0.02,0,WeatherCatV1.10B1570,2013-01-20 04:43:00,
2013-01-19 23:48:00,41.5,30.2,30.19,SSW,199,2.0,3.0,64,0.00,,,0.02,0,WeatherCatV1.10B1570,2013-01-20 04:48:00,
2013-01-19 23:53:00,42.1,30.4,30.19,SSW,210,2.0,3.0,63,0.00,,,0.02,0,WeatherCatV1.10B1570,2013-01-20 04:53:00,
2013-01-19 23:58:00,42.5,30.0,30.19,SSW,195,3.0,3.0,61,0.00,,,0.02,0,WeatherCatV1.10B1570,2013-01-20 04:58:00,